Find Starlink 31297

NORAD ID: 59158 Int'l Des: 2024-044 Owner: SPXS Country: US Constellation: starlink operational
LEOCIRCULAR

当前视图

正在加载3D地球...

About Starlink 31297

Starlink 31297 (NORAD 59158) is a starlink constellation satellite (v2 mini) launched Mar 4, 2024 by SPXS of US. It operates in LEO, CIRCULAR orbit with a mass of 730.00 kg.

即将过境

Passes for default location (London). Set your location on the main map for personalized predictions.

高度历史

Loading altitude history...

两行轨道根数

1 59158U 24044G 26262.95040574 .00002678 00000-0 10686-3 0 9991
2 59158 42.9991 90.0835 0001240 267.6536 92.4174 15.27561538143302
Epoch: Sep 19, 2026 • Age: 19 hours

当前状态

高度 492.9 km
远地点 / 近地点 N/A
速度 7.62 km/s
星下点 -36.33°S, 133.76°E
发射日期 Mar 4, 2024
运行时间 2.5 years
类型 internet

技术详情

分类 Payload
质量 730.00 kg
干质量 700.00 kg
长度 0.30 m
跨度 29.00 m
形状 ? Box + pan
制造商 SPXS
平台类型 Starlink V2M
阶段状态 In Orbit
所有者/国家 SPXS/US

Most Searched